111  
FPUS83 KFGF 170410  
OPUFGF  
PRAIRIE TO PINES WEATHER ROUNDUP  
NATIONAL WEATHER SERVICE EASTERN NORTH DAKOTA/GRAND FORKS ND  
1000 PM CST SAT DEC 16 2017  
 
**SATELLITE DATA USED TO AUGMENT SKY COVER AT AUTOMATED STATIONS**  
***** WEATHER ACROSS EASTERN NORTH DAKOTA *****  
 
CITY SKY/WX TMP DP RH WIND PRES REMARKS  
GRAND FORKS FAIR 12 11 95 S7 30.03R WCI 1  
GRND FORKS AFB FAIR 14 12 92 SW8 30.02R WCI 3  
GRND FORKS NWS N/A 18 N/A N/A S5 N/A WCI 11  
BUXTON NOT AVBL  
DEVILS LAKE FAIR 24 21 88 SW8 30.00S WCI 15  
FARGO FAIR 25 23 92 S7 30.07R WCI 17  
WAHPETON ARPT N/A 27 25 93 CALM 30.09R  

 
 
***** WEATHER ACROSS CENTRAL AND WESTERN NORTH DAKOTA *****  
 
CITY SKY/WX TMP DP RH WIND PRES REMARKS  
JAMESTOWN FAIR 30 28 92 SW5 30.04R  
BISMARCK FAIR 30 27 88 SW5 30.07R  
MINOT FAIR 28 21 75 SW10 30.00S WCI 19  
MINOT AFB FAIR 25 19 79 W12 29.99R WCI 14  
GARRISON N/A 28 22 78 W9 30.02R WCI 19  
WILLISTON FAIR 24 18 77 W6 30.04R WCI 17  
DICKINSON FAIR 26 21 81 W7 30.02S WCI 18  
HETTINGER FAIR 20 18 92 NW3 30.06S  

 
 
***** OTHER OBSERVATIONS NORTHEAST NORTH DAKOTA *****  
 
CITY SKY/WX TMP DP RH WIND PRES REMARKS  
WALHALLA FAIR 27 27 100 VRB6 29.97S WCI 20  
LANGDON NOT AVBL  
CAVALIER FAIR 16 16 100 S6 29.98F WCI 7  
GRAFTON NOT AVBL  
CANDO FAIR 18 18 100 W10 30.00S WCI 6  
FORT TOTTEN N/A 28 24 86 W2 29.95S  
ROLLA FAIR 25 19 80 W12 29.95F WCI 14  
RUGBY NOT AVBL  
***** THE ABOVE OBSERVATIONS ARE NON NWS ARE NOT QUALITY  
CONTROLLED AND MAY MIS-REPORT RAIN FOR SNOW...  

 
 
***** OTHER OBSERVATIONS SOUTHEAST NORTH DAKOTA *****  
 
CITY SKY/WX TMP DP RH WIND PRES REMARKS  
COOPERSTOWN FAIR 23 23 100 SW7 30.03R WCI 15  
VALLEY CITY NOT AVBL  
OAKES N/A 30 30 100 SE3 30.06S  
GWINNER N/A 28 28 100 CALM 30.07R  
SHEYENNE NWR N/A 26 26 100 SW2 29.95S  
BUFFALO NOT AVBL  
WYNDMERE NOT AVBL  
***** THE ABOVE OBSERVATIONS ARE NON NWS ARE NOT QUALITY  
CONTROLLED AND MAY MIS-REPORT RAIN FOR SNOW...  

 
 
***** WEATHER ACROSS NORTHERN MINNESOTA *****  
 
CITY SKY/WX TMP DP RH WIND PRES REMARKS  
FLAG ISLAND CLOUDY 16 12 86 S5 30.00F FOG WCI 9  
WARROAD CLOUDY 19 16 86 S6 30.01F FOG WCI 11  
ROSEAU FOG 19 16 86 S6 30.01S VSB 1 WCI 11  
HALLOCK FAIR 14 12 92 SE8 30.01S WCI 3  
THF RVR FALLS FOG 20 19 96 S7 30.04S VSB 1/2 WCI 11  
HALSTAD NOT AVBL  
FOSSTON CLOUDY 23 21 93 S6 30.05R WCI 16  
BAUDETTE CLOUDY 16 14 92 CALM 30.01S FOG  
WASKISH CLOUDY 21 21 100 S5 30.04R WCI 15  
CROOKSTON FOG 14 12 92 SE6 30.06R VSB 3/4 WCI 5  

 
***** WEATHER ACROSS CENTRAL AND WEST MINNESOTA *****  
 
CITY SKY/WX TMP DP RH WIND PRES REMARKS  
BEMIDJI CLOUDY 24 22 91 NW3 30.04R  
PARK RAPIDS CLOUDY 26 23 88 CALM 30.04R  
WADENA CLOUDY 25 25 100 CALM 30.07R FOG  
DETROIT LAKES CLOUDY 27 27 100 CALM 30.06S  
MOORHEAD FAIR 23 21 93 CALM 30.09R FOG  
FERGUS FALLS FAIR 25 25 100 CALM 30.11R FOG  
ELBOW LAKE FAIR 25 25 99 W3 30.08R FOG  
MORRIS MN FAIR 27 27 100 S5 30.07S FOG WCI 21  
STAPLES CLOUDY 25 21 86 CALM 30.08R  
WHEATON FAIR 27 27 100 CALM 30.11R FOG  

 
***** WEATHER ELSEWHERE ACROSS MINNESOTA *****  
 
CITY SKY/WX TMP DP RH WIND PRES REMARKS  
DULUTH CLOUDY 19 13 77 SE5 30.07R WCI 12  
INTRNTL FALLS CLOUDY 18 15 88 CALM 30.04R FOG  
ELY CLOUDY 21 18 86 S5 30.06R WCI 15  
CLOQUET CLOUDY 19 12 73 CALM 30.08R  
BRAINERD CLOUDY 24 18 77 S6 30.08R WCI 17  
HIBBING CLOUDY 19 14 81 S6 30.07R WCI 11  
ALEXANDRIA CLOUDY 27 26 96 S6 30.07R WCI 20  
SAINT CLOUD CLOUDY 23 19 85 CALM 30.10R  
MINNEAPOLIS MOCLDY 25 19 78 E3 30.11S  

 
 
***** WEATHER ACROSS SOUTH DAKOTA *****  
 
CITY SKY/WX TMP DP RH WIND PRES REMARKS  
SIOUX FALLS MOCLDY 28 27 96 N6 30.04F WCI 22  
BROOKINGS CLOUDY 32 30 92 NE5 30.06R  
WATERTOWN FAIR 28 28 100 CALM 30.05R  
HURON FAIR 32 31 96 CALM 30.08R  
SISSETON N/A 28 27 96 S5 30.08R WCI 23  
ABERDEEN CLOUDY 30 28 92 SW5 30.08R  
MITCHELL FAIR 30 29 96 N6 30.07S WCI 24  
PIERRE CLOUDY 34 31 88 CALM 30.07R  
MOBRIDGE CLOUDY 33 28 81 NW3 30.05R  
RAPID CITY CLOUDY 31 23 72 N7 30.06R WCI 24  

 
 
***** SOME WEATHER IN NEARBY STATES *****  
 
CITY SKY/WX TMP DP RH WIND PRES REMARKS  
GLASGOW MT FAIR 24 17 74 SW5 30.03F WCI 18  
GREAT FALLS MT FAIR 18 13 80 S10 29.99F WCI 6  
CHEYENNE WY FOG 26 26 100 E10 29.90S VSB 3/4 WCI 16  
SCOTTSBLUFF NE CLOUDY 34 27 75 E12 29.99R  
OMAHA NE FAIR 35 24 64 N7 29.97R  
DES MOINES IA FAIR 38 27 64 NE8 29.96F  
DAVENPORT IA FAIR 32 23 69 E8 30.04S WCI 25  
CHICAGO IL FAIR 28 26 92 N5 30.06R WCI 23  
EAU CLAIRE WI CLOUDY 24 21 88 SE3 30.11R  
LA CROSSE WI CLOUDY 29 26 89 E6 30.12R WCI 23  

 
 
***** SOME NATIONAL WEATHER *****  
 
CITY SKY/WX TMP DP RH WIND PRES REMARKS  
LA GUARDIA NY CLOUDY 36 23 59 N10 30.20R  
RALEIGH NC FAIR 33 24 69 SW3 30.27R  
ATLANTA GA MOCLDY 39 30 70 CALM 30.28S  
NEW ORLEANS LA CLOUDY 58 54 86 E13 30.15F  
OKLAHOMA CITY CLOUDY 44 37 76 S18G29 29.95S  
ALBUQUERQUE NM MOCLDY 35 15 44 SE7 29.85R  
SALT LAKE CITY LGT SNOW 31 29 92 NW9 30.04R FOG WCI 23  
LOS ANGELES CA FAIR 60 52 74 NW5 29.76R  
BOISE ID FAIR 29 22 75 W12 30.17R WCI 19  
SEATTLE WA CLOUDY 44 40 85 S7 30.27R  

 
 
*** WEATHER ACROSS MANITOBA...SASKATCHEWAN AND ONTARIO ***  
***ONTARIO***  
 
CITY SKY/WX TMP DP RH WIND PRES REMARKS  
GERALDTON FLURRIES -4 -9 77 S3 30.17S  
THUNDER BAY FLURRIES 14 10 85 CALM 30.16F  
SIOUX LOOKOUT FRZ DRZL 9 5 85 S7 30.01S WCI -3  
TORONTO PTCLDY 16 7 67 N10 30.21S WCI 3  
BIG TROUT LK CLEAR -9 -15 77 S10 30.03F WCI -28  
PICKLE LAKE NOT AVBL  
DRYDEN FLURRIES 10 9 92 S9 29.99S WCI -2  
KENORA LGT SNOW 10 9 92 S7 29.99S FOG WCI 0  

 
*** MANITOBA***  
 
CITY SKY/WX TMP DP RH WIND PRES REMARKS  
BRANDON PTCLDY 12 9 85 SW9 29.92S WCI 0  
DAUPHIN CLOUDY 28 23 80 SW14 29.86S WCI 17  
ISLAND LAKE CLOUDY 0 -6 78 S7 29.91F WCI -13  
PILOT MOUND N/A 16 14 93 W3 N/A  
THE PAS FLURRIES 12 9 85 VRB2 29.80F  
THOMPSON FLURRIES -6 -11 77 S3 29.84F  
WINNIPEG MOCLDY 16 14 93 S12 29.96S WCI 3  
LYNN LAKE CLOUDY 1 -2 85 SW6 29.71F WCI -10  
CHURCHILL CLOUDY -6 -9 84 SW3 29.84F  
GILLAM MOCLDY -6 -11 77 S8 29.88F WCI -21  

 
***SASKATCHEWAN***  
 
CITY SKY/WX TMP DP RH WIND PRES REMARKS  
ESTEVAN CLEAR 19 16 86 SW9 29.97S WCI 9  
KINDERSLEY CLEAR 18 12 79 SW8 29.88F WCI 7  
LLOYDMINSTER CLEAR 23 18 80 SW12 29.79F WCI 12  
PRINCE ALBERT CLOUDY 30 25 80 W9 29.82F WCI 22  
REGINA PTCLDY 23 18 80 W12 29.92S WCI 12  
YORKTON MOCLDY 27 23 86 W9 29.85S W  
 
CLICK HERE TO GO TO PREVIOUS BULLETINS.

The Nexlab ND Page
The Nexlab MN Page Main Text Page